Flag for Australia

Past Weather in Brisbane, Queensland, Australia — Yesterday and Last 2 Weeks

Now
57 °F

Clear.


Feels Like: 56 °F
Forecast: 74 / 52 °F
Wind: 6 mph from Southwest

Location: Brisbane Airport M. O
Current Time: Sep 29, 2020 at 11:57:03 pm
Latest Report: Sep 29, 2020 at 11:00 pm
Visibility: 10 mi
Pressure30.21 "Hg
Humidity: 72%
Dew Point: 48 °F
Location of BrisbaneLocation

Past Weather in Brisbane — Graph

°F

Brisbane Temperature Yesterday

Maximum temperature yesterday: 70 °F (at 10:00 am)
Minimum temperature yesterday: 50 °F (at 4:00 am)
Average temperature yesterday: 62 °F

High & Low Weather Summary for the Past Weeks

 TemperatureHumidityPressure
High82 °F (Sep 23, 12:00 pm)100% (Sep 15, 4:00 am)30.33 "Hg (Sep 15, 4:00 am)
Low48 °F (Sep 27, 4:00 am)8% (Sep 26, 12:20 pm)29.71 "Hg (Sep 25, 4:30 pm)
Average68 °F67%30.11 "Hg
* Reported Sep 14 10:00 pm — Sep 29 10:30 pm, Brisbane. Weather by CustomWeather, © 2020

Note: Actual official high and low records may vary slightly from our data, if they occured in-between our weather recording intervals... More about our weather records

Brisbane Weather History for the Previous 24 Hours

Scroll right to see more
 ConditionsComfort  
Time TempWeatherWind HumidityBarometerVisibility
10:30 pm
Tue, Sep 29
61 °FClear.5 mph63%30.21 "Hg10 mi
10:00 pm63 °FClear.5 mph59%30.24 "Hg10 mi
9:30 pm64 °FClear.6 mph56%30.24 "Hg10 mi
9:00 pm64 °FPassing clouds.7 mph56%30.24 "HgN/A
8:30 pm66 °FClear.6 mph49%30.21 "Hg10 mi
8:00 pm66 °FClear.8 mph49%30.21 "Hg10 mi
7:30 pm66 °FClear.9 mph46%30.21 "Hg10 mi
7:00 pm66 °FClear.8 mph46%30.21 "Hg10 mi
6:30 pm66 °FClear.9 mph43%30.18 "Hg10 mi
6:00 pm66 °FClear.9 mph40%30.18 "Hg10 mi
5:30 pm66 °FSunny.8 mph43%30.18 "Hg10 mi
5:00 pm68 °FPassing clouds.9 mph40%30.18 "HgN/A
4:30 pm68 °FSunny.10 mph38%30.18 "Hg10 mi
4:00 pm70 °FSunny.10 mph40%30.18 "Hg10 mi
3:30 pm70 °FSunny.10 mph40%30.15 "Hg10 mi
3:00 pm70 °FSunny.12 mph43%30.15 "Hg10 mi
2:30 pm72 °FSunny.13 mph41%30.15 "Hg10 mi
2:00 pm72 °FSunny.13 mph38%30.18 "Hg10 mi
1:30 pm72 °FSunny.13 mph38%30.18 "Hg10 mi
1:00 pm73 °FSunny.13 mph38%30.21 "Hg10 mi
12:30 pm72 °FSunny.13 mph41%30.21 "Hg10 mi
12:00 pm72 °FSunny.13 mph41%30.24 "Hg10 mi
11:30 am73 °FSunny.13 mph38%30.24 "Hg10 mi
10:30 am70 °FSunny.12 mph46%30.27 "Hg10 mi
10:00 am70 °FSunny.13 mph46%30.27 "Hg10 mi
9:30 am68 °FScattered clouds.13 mph53%30.27 "HgN/A
9:00 am70 °FScattered clouds.10 mph50%30.27 "HgN/A
8:30 am66 °FScattered clouds.9 mph56%30.27 "HgN/A
8:00 am68 °FScattered clouds.9 mph53%30.27 "HgN/A
7:30 am64 °FScattered clouds.8 mph60%30.27 "HgN/A
7:00 am63 °FPartly sunny.8 mph59%30.24 "HgN/A
6:30 am61 °FPartly sunny.7 mph68%30.24 "HgN/A
6:00 am57 °FPartly sunny.7 mph72%30.21 "HgN/A
5:30 am55 °FPartly sunny.6 mph77%30.21 "HgN/A
5:00 am55 °FPassing clouds.6 mph82%30.18 "HgN/A
4:30 am55 °FPassing clouds.6 mph77%30.18 "HgN/A
4:00 am55 °FPassing clouds.7 mph77%30.18 "HgN/A
3:30 am55 °FPassing clouds.7 mph82%30.21 "HgN/A
3:00 am55 °FPartly cloudy.7 mph82%30.21 "HgN/A
2:30 am55 °FPassing clouds.7 mph82%30.21 "HgN/A
2:00 am57 °FPartly cloudy.7 mph77%30.21 "HgN/A
1:30 am57 °FPassing clouds.7 mph77%30.21 "HgN/A
1:00 am59 °FPassing clouds.7 mph68%30.24 "HgN/A
12:30 am59 °FPassing clouds.7 mph68%30.24 "HgN/A
12:00 am59 °FPassing clouds.6 mph72%30.24 "HgN/A
11:30 pm
Mon, Sep 28
59 °FPassing clouds.5 mph72%30.24 "HgN/A
11:00 pm59 °FPassing clouds.7 mph72%30.24 "HgN/A
Weather by CustomWeather, © 2020

See weather overview